Temp
13 13 13 13 13 13 13 13 13 14 15 16 16 16 15 15 16 16 15 14 13 13
12 12 12 12 12 11 11 11 12 12 13 13 14 14 14 14 14 15 15 14 13 12
10 10 10 10 10 10 10 10 10 11 11 11 12 12 13 12 12 13 13 13 12 11
9 9 9 9 9 9 8 9 9 9 9 9 10 10 10 10 11 11 10 11 10 9
7 7 7 7 7 7 7 7 7 7 7 8 8 8 8 8 8 9 8 8 7 7
6 5 5 5 5 6 6 6 6 6 6 6 7 7 7 6 7 7 6 6 5 5
4 4 3 3 3 4 4 4 4 4 4 4 4 5 5 5 4 4 4 4 4 3
3 2 2 2 2 2 3 3 2 3 2 2 2 2 2 2 2 2 2 1 1 1
2 2 2 2 2 2 2 2 2 1 1 1 1 0 1 1 0 -0 -0 0 0 1
1 1 1 1 1 1 1 1 0 1 1 1 1 1 1 1 0 0 0 -0 0 -0
0 0 0 0 -0 -0 -0 -0 -0 0 0 0 -0 0 0 0 0 -0 -1 -1 -1 -1
0 0 -0 -0 -0 -1 -1 -1 -1 -0 0 -0 -1 -0 -0 -0 -1 -1 -1 -2 -2 -1
-0 -0 -0 -1 -1 -2 -2 -2 -1 -1 -1 -1 -0 -1 -1 -1 -1 -1 -2 -2 -2 -2
-0 -0 -1 -1 -2 -1 -1 -1 -1 -1 -1 -1 -1 -1 -1 -2 -2 -2 -2 -2 -2 -3
Height
793 793 792 791 791 790 790 789 788 786 785 784 784 784 785 786 787 787 788 789 789 788
793 792 791 790 790 789 789 788 786 785 785 783 783 782 782 782 783 781 784 785 784 784
794 793 791 790 789 789 788 787 785 784 783 782 781 780 780 780 780 779 781 781 782 782
793 792 791 789 789 788 787 786 785 783 782 781 780 779 780 779 779 778 779 778 779 779
792 792 790 789 788 787 786 785 785 783 782 781 781 780 779 779 778 777 778 778 778 778
792 791 790 789 788 788 787 786 785 782 781 781 780 780 780 779 778 778 778 778 779 778
792 791 791 791 790 789 788 786 784 784 783 782 780 780 779 779 779 779 778 778 778 778
794 793 793 793 792 790 786 785 786 786 785 783 782 782 781 782 781 779 779 779 780 779
796 794 795 793 791 790 788 788 788 789 788 787 787 787 786 784 783 783 783 784 783 782
796 795 794 793 792 792 791 790 790 791 793 792 791 792 790 788 788 787 787 787 785 785
796 794 794 794 793 794 794 794 794 796 796 795 795 794 793 793 792 791 790 789 789 788
795 795 795 794 795 796 797 798 798 798 798 797 796 797 797 797 795 794 793 792 792 792
796 796 795 796 798 799 799 799 799 800 799 798 799 800 800 798 797 796 795 794 794 794
796 796 797 799 800 799 800 800 801 801 801 800 800 801 801 799 798 797 796 795 794 794
Wind_Speed
4 3 4 3 3 4 5 6 9 9 8 8 8 9 11 13 13 14 15 19 21 26
4 3 3 3 2 4 5 7 9 10 10 8 7 8 9 9 10 11 17 17 16 19
5 5 4 2 4 5 7 8 9 9 8 7 8 8 7 6 8 9 12 16 16 14
3 3 3 4 5 7 7 8 9 10 9 9 9 8 7 6 7 6 7 9 10 9
3 4 4 5 5 6 6 7 7 8 8 8 9 10 9 8 7 6 6 7 7 7
4 5 5 6 6 5 5 5 6 7 8 8 8 8 8 6 6 5 6 7 7 7
5 5 5 6 6 6 7 7 8 9 10 10 9 7 7 5 4 4 6 6 6 7
4 5 4 4 5 7 10 11 11 12 13 14 14 12 9 7 9 10 11 11 11 12
2 3 4 5 8 9 12 13 13 15 17 18 17 14 11 11 14 15 15 14 14 13
3 5 7 8 10 11 12 13 15 15 15 16 15 12 12 12 13 13 12 11 11 10
6 9 10 11 13 13 13 13 14 13 13 15 13 11 12 10 10 11 12 12 11 10
7 10 11 12 12 11 11 12 13 12 11 13 13 11 10 9 10 10 10 10 10 8
9 11 12 11 10 10 10 14 13 12 12 12 12 7 6 6 6 6 5 5 4 5
12 12 11 11 10 10 11 11 9 8 7 7 7 7 7 7 7 6 5 5 5 5
Wind_Direction
34 37 39 22 8 358 339 328 320 318 318 308 289 270 262 262 262 285 292 295 280 271
43 42 48 62 45 11 345 334 327 319 311 314 308 284 276 269 270 272 287 291 291 283
70 76 75 55 27 7 352 351 351 350 344 327 305 299 296 284 287 293 289 289 291 295
45 32 17 5 358 351 348 354 3 7 358 353 348 336 323 315 310 300 298 301 299 299
17 9 7 8 359 352 353 357 5 13 12 4 1 355 351 346 340 339 334 332 337 339
25 24 26 24 21 14 13 17 21 31 31 24 12 355 344 359 6 11 10 6 358 352
42 41 43 46 51 54 54 52 47 43 45 40 36 32 24 23 43 52 50 36 26 24
53 58 63 65 65 66 67 66 69 66 60 54 50 43 50 63 72 73 75 73 73 69
110 104 98 94 86 84 87 86 81 72 69 61 59 56 65 80 84 83 83 83 82 84
157 117 110 104 99 95 93 93 89 85 81 75 64 60 65 72 84 83 80 75 68 69
135 119 117 111 104 100 99 99 97 94 87 81 69 65 59 60 71 78 75 69 64 64
133 132 129 116 114 112 113 110 104 98 93 84 71 62 65 67 71 75 69 61 49 39
154 140 133 129 131 128 123 115 114 106 94 85 79 67 51 45 45 48 42 37 32 27
153 144 143 143 152 131 124 123 120 114 98 86 78 65 52 36 22 23 4 359 358 355